Date,TemperatureHighF,TemperatureAvgF,TemperatureLowF,DewpointHighF,DewpointAvgF,DewpointLowF,HumidityHigh,HumidityAvg,HumidityLow,PressureMaxIn,PressureMinIn,WindSpeedMaxMPH,WindSpeedAvgMPH,GustSpeedMaxMPH,PrecipitationSumIn
2013-1-1,26,16,12,19,-4,-100,92,75,74,0.00,40.00,1,-143,5,0.01
2013-1-2,32,13,1,20,-6,-100,87,66,50,0.00,40.00,1,-121,3,0.00
2013-1-3,27,3,-6,12,-8,-100,88,75,51,0.00,40.00,1,-66,3,0.00
2013-1-4,34,10,-6,11,-13,-100,86,57,29,0.00,40.00,1,-124,5,0.00
2013-1-5,45,22,5,16,-10,-100,86,43,17,0.00,40.00,2,-142,5,0.01
2013-1-6,45,23,8,9,-15,-100,71,36,20,0.00,40.00,1,-200,4,0.00
2013-1-7,45,31,18,12,4,-100,71,43,23,0.00,40.00,1,0,4,0.00
2013-1-8,49,28,12,14,-12,-100,80,39,17,0.00,40.00,2,-199,5,0.00
2013-1-9,48,39,27,16,12,9,55,34,24,0.00,40.00,1,1,3,0.00
2013-1-10,43,36,31,16,0,-100,47,32,23,0.00,40.00,2,-99,7,0.00
2013-1-11,35,24,7,19,9,-5,93,53,45,0.00,40.00,5,2,16,0.00
2013-1-12,21,7,-7,0,-16,-100,76,51,31,0.00,40.00,2,-110,4,0.00
2013-1-13,22,7,-2,0,-20,-100,78,51,36,0.00,40.00,2,-166,8,0.00
2013-1-14,15,9,3,9,5,0,89,83,73,0.00,40.00,1,0,8,0.01
2013-1-15,21,7,-8,10,-5,-100,88,71,47,0.00,40.00,1,-57,3,0.01
2013-1-16,44,22,6,24,8,-100,92,66,35,0.00,40.00,1,-48,4,0.01
2013-1-17,44,25,14,24,-1,-100,95,63,37,0.00,40.00,1,-142,4,0.00
2013-1-18,46,31,20,22,6,-100,79,54,34,0.00,40.00,1,-99,5,0.00
2013-1-19,50,34,21,15,1,-100,67,35,19,0.00,40.00,2,-79,6,0.00
2013-1-20,54,38,17,10,-6,-100,45,23,12,0.00,40.00,1,-110,4,0.00
2013-1-21,49,39,28,11,9,6,44,30,19,0.00,40.00,1,1,5,0.00
2013-1-22,53,42,27,10,8,5,47,28,14,0.00,40.00,1,1,4,0.00
2013-1-23,58,47,36,7,3,0,25,17,11,0.00,40.00,1,1,4,0.00
2013-1-24,49,42,36,23,20,15,58,41,26,0.00,40.00,4,3,9,0.00
2013-1-25,48,39,35,35,25,-100,90,71,56,0.00,40.00,2,-47,6,0.01
2013-1-26,48,38,34,40,18,-100,98,78,61,0.00,40.00,3,-124,10,0.00
2013-1-27,39,38,35,36,33,30,95,83,77,0.00,40.00,4,3,10,0.01
2013-1-28,41,34,25,33,12,-100,99,72,57,0.00,40.00,4,-85,13,0.03
2013-1-29,31,20,13,27,-8,-100,97,69,70,0.00,40.00,2,-210,7,0.04
2013-1-30,29,23,12,20,2,-100,86,64,59,0.00,40.00,2,-132,6,0.01
2013-1-31,41,33,25,27,13,-100,84,64,56,0.00,40.00,2,-90,5,0.00